K0NV Weather Reports


time (UTC)temp
C
wind
direction
speed
KPH
gust
KPH
rain 1hr
cm
rain 24hr
cm
rain mn
cm
humidity
%
barometer
mb
20260906181138 36 43 3.2 4.8 0.00 0.00 0.00 43 1016.0
20260906180633 37 115 0.0 0.0 0.00 0.00 0.00 44 1016.1
20260906180132 37 86 1.6 3.2 0.00 0.00 0.00 44 1016.2
20260906175631 36 31 0.0 0.0 0.00 0.00 0.00 43 1016.3
20260906175126 36 119 1.6 3.2 0.00 0.00 0.00 43 1016.5
20260906174624 37 66 0.0 0.0 0.00 0.00 0.00 42 1016.3
20260906174119 36 29 0.0 0.0 0.00 0.00 0.00 45 1016.7
20260906173614 36 359 0.0 1.6 0.00 0.00 0.00 43 1016.9
20260906173110 37 57 0.0 0.0 0.00 0.00 0.00 43 1016.9
20260906172604 35 87 0.0 0.0 0.00 0.00 0.00 45 1016.9
20260906172100 36 65 0.0 0.0 0.00 0.00 0.00 44 1016.7
20260906171559 36 20 0.0 0.0 0.00 0.00 0.00 43 1017.0
20260906171055 36 70 0.0 0.0 0.00 0.00 0.00 44 1017.2
20260906170551 36 353 0.0 0.0 0.00 0.00 0.00 44 1017.2
20260906170049 36 23 0.0 0.0 0.00 0.00 0.00 44 1017.6
20260906165546 36 92 1.6 3.2 0.00 0.00 0.00 44 1017.3
20260906165041 36 80 0.0 0.0 0.00 0.00 0.00 42 1017.3
20260906164541 36 67 0.0 0.0 0.00 0.00 0.00 45 1017.5
20260906164037 36 42 0.0 0.0 0.00 0.00 0.00 46 1017.4
20260906163532 36 184 0.0 0.0 0.00 0.00 0.00 45 1017.5
20260906163028 36 43 0.0 0.0 0.00 0.00 0.00 45 1017.5
20260906162524 36 25 0.0 0.0 0.00 0.00 0.00 46 1017.5
20260906162020 36 19 1.6 3.2 0.00 0.00 0.00 45 1017.5
20260906161515 36 100 0.0 0.0 0.00 0.00 0.00 46 1017.5
20260906161013 36 38 0.0 0.0 0.00 0.00 0.00 45 1017.3
20260906160507 36 25 0.0 1.6 0.00 0.00 0.00 45 1017.5
20260906160006 36 31 0.0 0.0 0.00 0.00 0.00 45 1017.5
20260906155504 35 62 0.0 0.0 0.00 0.00 0.00 46 1017.8
20260906154959 35 31 0.0 0.0 0.00 0.00 0.00 47 1017.9
20260906154454 35 117 0.0 0.0 0.00 0.00 0.00 46 1017.7
20260906153953 35 1 0.0 0.0 0.00 0.00 0.00 46 1017.4
20260906153451 35 110 0.0 0.0 0.00 0.00 0.00 46 1017.7
20260906152942 35 116 0.0 0.0 0.00 0.00 0.00 47 1017.4
20260906152442 35 19 0.0 0.0 0.00 0.00 0.00 48 1017.4
20260906151941 36 46 0.0 0.0 0.00 0.00 0.00 46 1017.4
20260906151437 35 239 0.0 0.0 0.00 0.00 0.00 47 1017.4
20260906150932 36 265 0.0 0.0 0.00 0.00 0.00 49 1017.4
20260906150426 34 77 0.0 0.0 0.00 0.00 0.00 50 1017.4
20260906145921 34 20 0.0 0.0 0.00 0.00 0.00 51 1017.6
20260906145420 35 96 0.0 0.0 0.00 0.00 0.00 50 1017.4
20260906144915 35 144 0.0 0.0 0.00 0.00 0.00 49 1017.4
20260906144409 35 153 0.0 0.0 0.00 0.00 0.00 49 1017.3
20260906143904 34 257 0.0 0.0 0.00 0.00 0.00 50 1017.2
20260906143400 33 239 0.0 0.0 0.00 0.00 0.00 52 1017.2
20260906142855 35 230 0.0 0.0 0.00 0.00 0.00 53 1017.2
20260906142344 33 89 0.0 0.0 0.00 0.00 0.00 54 1017.3
20260906141845 33 110 0.0 0.0 0.00 0.00 0.00 54 1017.4
20260906141339 33 280 0.0 0.0 0.00 0.00 0.00 54 1017.1
20260906140839 33 133 0.0 0.0 0.00 0.00 0.00 55 1017.2
20260906140333 33 270 0.0 0.0 0.00 0.00 0.00 56 1017.5
20260906135831 32 317 0.0 0.0 0.00 0.00 0.00 57 1017.1
20260906135326 32 63 0.0 0.0 0.00 0.00 0.00 56 1017.3
20260906134821 31 77 0.0 0.0 0.00 0.00 0.00 59 1017.1
20260906134316 31 252 0.0 0.0 0.00 0.00 0.00 60 1017.4
20260906133812 31 161 0.0 0.0 0.00 0.00 0.00 61 1017.1
20260906133307 30 155 0.0 0.0 0.00 0.00 0.00 63 1017.1
20260906132802 30 255 0.0 0.0 0.00 0.00 0.00 63 1017.1
20260906132257 29 243 0.0 0.0 0.00 0.00 0.00 65 1017.1
20260906131753 29 239 0.0 0.0 0.00 0.00 0.00 66 1017.0
20260906131247 28 236 0.0 0.0 0.00 0.00 0.00 67 1017.0
20260906130743 28 132 0.0 0.0 0.00 0.00 0.00 67 1016.9
20260906130238 28 107 0.0 0.0 0.00 0.00 0.00 69 1016.9
20260906125737 29 113 0.0 0.0 0.00 0.00 0.00 68 1016.6
20260906125235 28 247 0.0 0.0 0.00 0.00 0.00 66 1016.9
20260906124730 28 241 0.0 0.0 0.00 0.00 0.00 68 1016.6
20260906124226 27 247 0.0 0.0 0.00 0.00 0.00 68 1016.5
20260906123724 27 244 0.0 0.0 0.00 0.00 0.00 69 1016.6
20260906123220 27 239 0.0 0.0 0.00 0.00 0.00 69 1016.5
20260906122719 26 247 0.0 0.0 0.00 0.00 0.00 70 1016.5
20260906122215 26 245 0.0 0.0 0.00 0.00 0.00 72 1016.6
20260906121711 25 246 0.0 0.0 0.00 0.00 0.00 74 1016.3
20260906121207 25 247 0.0 0.0 0.00 0.00 0.00 74 1016.4
20260906120703 25 240 0.0 0.0 0.00 0.00 0.00 74 1016.4
20260906120159 25 230 0.0 0.0 0.00 0.00 0.00 74 1016.3
20260906115654 25 243 0.0 0.0 0.00 0.00 0.00 75 1016.1
20260906115150 23 237 0.0 0.0 0.00 0.00 0.00 77 1016.3
20260906114648 24 141 0.0 0.0 0.00 0.00 0.00 79 1016.3
20260906114144 24 215 0.0 0.0 0.00 0.00 0.00 77 1016.3
20260906113643 25 266 0.0 0.0 0.00 0.00 0.00 75 1016.0
20260906113138 25 260 0.0 0.0 0.00 0.00 0.00 74 1016.1
20260906112637 25 294 0.0 0.0 0.00 0.00 0.00 74 1016.0
20260906112135 24 245 0.0 0.0 0.00 0.00 0.00 76 1016.1
20260906111634 24 132 0.0 0.0 0.00 0.00 0.00 76 1015.8
20260906111129 24 232 0.0 0.0 0.00 0.00 0.00 76 1015.9
20260906110623 24 182 0.0 0.0 0.00 0.00 0.00 77 1016.0
20260906110118 24 146 0.0 0.0 0.00 0.00 0.00 77 1016.0
20260906105607 24 110 0.0 0.0 0.00 0.00 0.00 77 1016.1
20260906105103 25 112 0.0 0.0 0.00 0.00 0.00 76 1015.9
20260906104602 25 199 0.0 0.0 0.00 0.00 0.00 75 1016.1
20260906104056 25 197 0.0 0.0 0.00 0.00 0.00 75 1015.9
20260906103554 25 138 0.0 0.0 0.00 0.00 0.00 76 1015.8
20260906103049 25 135 0.0 0.0 0.00 0.00 0.00 75 1015.9
20260906102549 25 136 0.0 0.0 0.00 0.00 0.00 76 1015.8
20260906102044 25 93 0.0 0.0 0.00 0.00 0.00 75 1015.7
20260906101539 25 106 0.0 0.0 0.00 0.00 0.00 74 1015.6
20260906101034 25 143 0.0 0.0 0.00 0.00 0.00 75 1015.8
20260906100530 25 152 0.0 0.0 0.00 0.00 0.00 75 1015.6
20260906100030 25 144 0.0 0.0 0.00 0.00 0.00 74 1015.6
20260906095524 25 143 0.0 0.0 0.00 0.00 0.00 75 1015.6
20260906095020 25 151 0.0 0.0 0.00 0.00 0.00 75 1015.8
20260906094519 25 116 1.6 1.6 0.00 0.00 0.00 74 1015.6
20260906094015 25 356 0.0 0.0 0.00 0.00 0.00 73 1015.7
20260906093511 26 323 0.0 0.0 0.00 0.00 0.00 72 1015.7
20260906093011 25 333 0.0 0.0 0.00 0.00 0.00 71 1015.7
20260906092505 25 274 0.0 0.0 0.00 0.00 0.00 72 1015.7
20260906092001 25 275 0.0 0.0 0.00 0.00 0.00 72 1015.6
20260906091456 25 272 0.0 0.0 0.00 0.00 0.00 72 1015.8
20260906090953 26 267 0.0 0.0 0.00 0.00 0.00 71 1015.6
20260906090447 26 273 0.0 0.0 0.00 0.00 0.00 71 1015.8
20260906085942 26 262 0.0 0.0 0.00 0.00 0.00 71 1015.5
20260906085441 26 262 0.0 0.0 0.00 0.00 0.00 71 1015.7
20260906084940 26 257 0.0 0.0 0.00 0.00 0.00 71 1015.4
20260906084435 26 260 0.0 0.0 0.00 0.00 0.00 71 1015.7
20260906083934 26 217 0.0 0.0 0.00 0.00 0.00 72 1015.7
20260906083430 26 244 0.0 0.0 0.00 0.00 0.00 72 1015.4
20260906082929 26 234 0.0 0.0 0.00 0.00 0.00 71 1015.3
20260906082425 26 251 0.0 0.0 0.00 0.00 0.00 70 1015.4
20260906081920 26 256 0.0 0.0 0.00 0.00 0.00 70 1015.5
20260906081416 26 266 0.0 0.0 0.00 0.00 0.00 69 1015.7
20260906080912 26 177 0.0 0.0 0.00 0.00 0.00 69 1015.6
20260906080408 26 265 0.0 0.0 0.00 0.00 0.00 69 1016.0
20260906075907 26 256 0.0 0.0 0.00 0.00 0.00 69 1015.8
20260906075403 27 134 0.0 0.0 0.00 0.00 0.00 68 1015.6
20260906074858 27 131 0.0 0.0 0.00 0.00 0.00 67 1015.5
20260906074357 27 94 0.0 0.0 0.00 0.00 0.00 67 1015.7
20260906073856 27 143 1.6 3.2 0.00 0.00 0.00 66 1015.7
20260906073351 27 118 0.0 0.0 0.00 0.00 0.00 66 1015.8
20260906072848 27 108 0.0 0.0 0.00 0.00 0.00 66 1015.5
20260906072343 27 104 0.0 0.0 0.00 0.00 0.00 66 1015.7
20260906071839 27 117 0.0 0.0 0.00 0.00 0.00 66 1015.8
20260906071333 27 130 0.0 1.6 0.00 0.00 0.00 66 1015.6
20260906070829 27 132 0.0 0.0 0.00 0.00 0.00 65 1015.8
20260906070325 27 128 0.0 0.0 0.00 0.00 0.00 65 1015.8
20260906065820 27 127 0.0 0.0 0.00 0.00 0.00 65 1015.7
20260906065315 27 89 0.0 0.0 0.00 0.00 0.00 65 1015.7
20260906064811 27 98 0.0 0.0 0.00 0.00 0.00 65 1015.7
20260906064307 28 69 0.0 0.0 0.00 0.00 0.00 64 1015.8
20260906063801 28 118 0.0 0.0 0.00 0.00 0.00 64 1016.0
20260906063256 28 102 0.0 0.0 0.00 0.00 0.00 64 1015.8
20260906062751 28 122 0.0 0.0 0.00 0.00 0.00 64 1015.7
20260906062250 28 117 0.0 0.0 0.00 0.00 0.00 64 1015.6
20260906061747 28 100 0.0 0.0 0.00 0.00 0.00 65 1015.9
20260906061243 28 78 0.0 0.0 0.00 0.00 0.00 64 1015.8
20260906060743 28 107 0.0 0.0 0.00 0.00 0.00 64 1016.1
20260906060241 28 125 0.0 0.0 0.00 0.00 0.00 64 1015.9
20260906055736 28 107 0.0 0.0 0.00 0.00 0.00 65 1016.0
20260906055231 28 122 0.0 0.0 0.00 0.00 0.00 65 1016.0
20260906054726 28 137 0.0 0.0 0.00 0.00 0.00 65 1016.0
20260906054222 27 261 0.0 0.0 0.00 0.00 0.00 68 1015.9
20260906053718 27 18 0.0 0.0 0.00 0.00 0.00 68 1015.8
20260906053213 27 51 0.0 1.6 0.00 0.00 0.00 68 1015.8
20260906052708 27 58 0.0 0.0 0.00 0.00 0.00 68 1015.7
20260906052205 27 299 0.0 0.0 0.00 0.00 0.00 68 1015.6
20260906051701 27 264 0.0 0.0 0.00 0.00 0.00 68 1015.6
20260906051200 27 264 0.0 0.0 0.00 0.00 0.00 67 1015.7
20260906050656 27 264 0.0 0.0 0.00 0.00 0.00 67 1015.8
20260906050151 27 257 0.0 0.0 0.00 0.00 0.00 68 1015.9
20260906045649 27 256 0.0 0.0 0.00 0.00 0.00 67 1015.5
20260906045145 27 256 0.0 0.0 0.00 0.00 0.00 67 1015.8
20260906044641 28 242 0.0 0.0 0.00 0.00 0.00 67 1015.7
20260906044136 28 260 0.0 0.0 0.00 0.00 0.00 66 1015.8
20260906043632 28 258 0.0 0.0 0.00 0.00 0.00 66 1015.8
20260906043127 28 255 0.0 0.0 0.00 0.00 0.00 66 1015.9
20260906042627 28 186 0.0 0.0 0.00 0.00 0.00 63 1015.8
20260906042121 28 110 0.0 0.0 0.00 0.00 0.00 64 1015.9
20260906041617 28 96 0.0 0.0 0.00 0.00 0.00 63 1015.9
20260906041112 28 127 0.0 0.0 0.00 0.00 0.00 64 1015.6
20260906040608 28 179 0.0 0.0 0.00 0.00 0.00 64 1015.5
20260906040103 28 115 0.0 0.0 0.00 0.00 0.00 64 1015.5
20260906035559 28 103 0.0 0.0 0.00 0.00 0.00 63 1015.6
20260906035054 28 113 0.0 0.0 0.00 0.00 0.00 64 1015.3
20260906034553 28 87 0.0 0.0 0.00 0.00 0.00 63 1015.5
20260906034048 28 66 0.0 0.0 0.00 0.00 0.00 63 1015.7
20260906033543 28 110 0.0 0.0 0.00 0.00 0.00 63 1015.4
20260906033039 29 73 0.0 0.0 0.00 0.00 0.00 62 1015.5
20260906032536 29 50 0.0 0.0 0.00 0.00 0.00 62 1015.5
20260906032030 29 84 0.0 0.0 0.00 0.00 0.00 62 1015.6
20260906031526 29 75 0.0 0.0 0.00 0.00 0.00 61 1015.4
20260906031022 29 137 1.6 3.2 0.00 0.00 0.00 61 1015.5
20260906030521 29 100 0.0 0.0 0.00 0.00 0.00 60 1015.1
20260906030021 30 86 0.0 0.0 0.00 0.00 0.00 59 1015.3
20260906025520 30 109 0.0 0.0 0.00 0.00 0.00 59 1015.6
20260906025019 30 105 0.0 0.0 0.00 0.00 0.00 58 1015.3
20260906024514 30 143 0.0 0.0 0.00 0.00 0.00 57 1015.2
20260906024013 30 125 0.0 0.0 0.00 0.00 0.00 57 1015.0
20260906023510 30 124 0.0 0.0 0.00 0.00 0.00 56 1015.1
20260906023004 30 127 0.0 0.0 0.00 0.00 0.00 56 1015.3
20260906022459 30 85 0.0 0.0 0.00 0.00 0.00 56 1015.2
20260906021955 30 118 0.0 0.0 0.00 0.00 0.00 55 1014.9
20260906021449 31 69 0.0 0.0 0.00 0.00 0.00 54 1014.9
20260906020944 31 125 0.0 0.0 0.00 0.00 0.00 53 1014.7
20260906020438 31 69 0.0 0.0 0.00 0.00 0.00 52 1014.7
20260906015932 31 36 0.0 0.0 0.00 0.00 0.00 52 1014.6
20260906015427 31 87 0.0 0.0 0.00 0.00 0.00 51 1014.5
20260906014927 31 102 0.0 0.0 0.00 0.00 0.00 51 1014.6
20260906014427 32 76 0.0 0.0 0.00 0.00 0.00 50 1014.5
20260906013923 32 164 0.0 0.0 0.00 0.00 0.00 49 1014.4
20260906013418 32 102 0.0 0.0 0.00 0.00 0.00 48 1014.4
20260906012913 32 120 0.0 0.0 0.00 0.00 0.00 49 1014.5
20260906012408 31 79 0.0 0.0 0.00 0.00 0.00 51 1014.1
20260906011908 31 108 0.0 0.0 0.00 0.00 0.00 53 1014.2
20260906011403 32 120 0.0 0.0 0.00 0.00 0.00 52 1014.2
20260906010858 32 117 0.0 0.0 0.00 0.00 0.00 51 1014.2
20260906010354 32 91 0.0 0.0 0.00 0.00 0.00 51 1014.1
20260906005849 32 91 0.0 0.0 0.00 0.00 0.00 49 1014.2
20260906005348 32 90 0.0 0.0 0.00 0.00 0.00 49 1014.0
20260906004847 33 90 0.0 0.0 0.00 0.00 0.00 48 1014.1
20260906004342 33 132 0.0 0.0 0.00 0.00 0.00 49 1014.0
20260906003837 33 97 0.0 0.0 0.00 0.00 0.00 48 1014.0
20260906003332 33 93 0.0 0.0 0.00 0.00 0.00 48 1014.0
20260906002833 34 144 0.0 0.0 0.00 0.00 0.00 46 1014.1
20260906002332 34 121 0.0 0.0 0.00 0.00 0.00 45 1014.1
20260906001828 35 124 0.0 0.0 0.00 0.00 0.00 45 1014.1
20260906001323 35 108 0.0 0.0 0.00 0.00 0.00 44 1014.0
20260906000818 35 119 0.0 0.0 0.00 0.00 0.00 44 1014.2
20260906000313 35 135 0.0 0.0 0.00 0.00 0.00 43 1014.2
20260905235809 35 130 0.0 0.0 0.00 0.00 0.00 43 1014.2
20260905235308 35 105 0.0 0.0 0.00 0.00 0.00 43 1014.4
20260905234804 35 96 0.0 0.0 0.00 0.00 0.00 42 1014.2
20260905234259 35 121 0.0 0.0 0.00 0.00 0.00 42 1014.2
20260905233754 35 84 0.0 0.0 0.00 0.00 0.00 42 1014.0
20260905233254 35 93 0.0 0.0 0.00 0.00 0.00 42 1013.8
20260905232753 36 145 0.0 0.0 0.00 0.00 0.00 42 1014.0
20260905232249 36 140 0.0 0.0 0.00 0.00 0.00 42 1014.1
20260905231744 36 95 0.0 0.0 0.00 0.00 0.00 41 1014.0
20260905231240 36 67 0.0 0.0 0.00 0.00 0.00 41 1014.1
20260905230736 36 29 0.0 0.0 0.00 0.00 0.00 42 1014.1
20260905230234 36 81 0.0 0.0 0.00 0.00 0.00 42 1014.0
20260905225733 36 255 0.0 0.0 0.00 0.00 0.00 42 1013.9
20260905225229 36 73 0.0 0.0 0.00 0.00 0.00 42 1013.9
20260905224728 36 44 0.0 0.0 0.00 0.00 0.00 42 1013.9
20260905224223 36 130 0.0 0.0 0.00 0.00 0.00 42 1013.6
20260905223719 36 268 0.0 0.0 0.00 0.00 0.00 40 1013.7
20260905223216 36 330 0.0 0.0 0.00 0.00 0.00 40 1013.8
20260905222712 37 86 0.0 0.0 0.00 0.00 0.00 40 1013.9
20260905222211 37 255 0.0 0.0 0.00 0.00 0.00 38 1013.9
20260905221707 37 278 0.0 0.0 0.00 0.00 0.00 38 1013.8
20260905221203 37 260 0.0 0.0 0.00 0.00 0.00 39 1013.8
20260905220658 36 113 0.0 0.0 0.00 0.00 0.00 40 1014.0
20260905220155 37 348 0.0 0.0 0.00 0.00 0.00 39 1014.2
20260905215649 37 260 0.0 0.0 0.00 0.00 0.00 39 1014.2
20260905215145 37 261 0.0 0.0 0.00 0.00 0.00 40 1014.2
20260905214640 37 60 0.0 0.0 0.00 0.00 0.00 41 1014.0
20260905214135 36 70 0.0 0.0 0.00 0.00 0.00 41 1014.1
20260905213631 36 44 0.0 0.0 0.00 0.00 0.00 41 1014.5
20260905213126 36 253 0.0 0.0 0.00 0.00 0.00 41 1014.7
20260905212621 36 39 0.0 0.0 0.00 0.00 0.00 42 1014.5
20260905212120 36 121 0.0 1.6 0.00 0.00 0.00 42 1014.6
20260905211615 36 93 0.0 0.0 0.00 0.00 0.00 43 1014.5
20260905211110 37 49 0.0 0.0 0.00 0.00 0.00 41 1014.4
20260905210607 37 35 0.0 0.0 0.00 0.00 0.00 40 1014.6
20260905205600 37 223 0.0 0.0 0.00 0.00 0.00 39 1014.9
20260905205054 37 57 0.0 0.0 0.00 0.00 0.00 38 1015.0
20260905204550 36 250 0.0 0.0 0.00 0.00 0.00 40 1015.0
20260905204045 37 303 0.0 0.0 0.00 0.00 0.00 40 1015.2
20260905203544 37 122 0.0 0.0 0.00 0.00 0.00 39 1014.9
20260905203040 37 339 0.0 0.0 0.00 0.00 0.00 40 1015.3
20260905202535 36 36 0.0 1.6 0.00 0.00 0.00 43 1015.3
20260905202030 36 32 0.0 0.0 0.00 0.00 0.00 43 1015.2
20260905201526 36 30 0.0 0.0 0.00 0.00 0.00 43 1015.5
20260905201025 36 52 0.0 1.6 0.00 0.00 0.00 44 1015.4
20260905200520 37 55 1.6 3.2 0.00 0.00 0.00 43 1015.6
20260905200015 36 247 0.0 0.0 0.00 0.00 0.00 42 1015.7
20260905195509 37 30 0.0 0.0 0.00 0.00 0.00 43 1015.6
20260905195004 36 287 0.0 0.0 0.00 0.00 0.00 44 1015.8
20260905194503 36 93 0.0 0.0 0.00 0.00 0.00 42 1015.7
20260905193958 37 152 0.0 0.0 0.00 0.00 0.00 41 1015.9
20260905193453 37 257 0.0 0.0 0.00 0.00 0.00 41 1015.8
20260905192948 36 8 0.0 0.0 0.00 0.00 0.00 41 1015.8
20260905192443 36 98 0.0 0.0 0.00 0.00 0.00 44 1016.0
20260905191938 35 256 0.0 0.0 0.00 0.00 0.00 46 1015.9
20260905191438 35 103 0.0 0.0 0.00 0.00 0.00 45 1015.9
20260905190937 35 321 0.0 0.0 0.00 0.00 0.00 45 1016.3
20260905190435 35 41 0.0 1.6 0.00 0.00 0.00 45 1016.3
20260905185934 36 0 0.0 0.0 0.00 0.00 0.00 44 1016.4
20260905185429 37 147 0.0 0.0 0.00 0.00 0.00 42 1016.5
20260905184927 37 94 0.0 0.0 0.00 0.00 0.00 43 1016.6
20260905184423 37 1 1.6 3.2 0.00 0.00 0.00 42 1016.6
20260905183922 37 251 0.0 0.0 0.00 0.00 0.00 42 1016.5
20260905183416 37 351 0.0 0.0 0.00 0.00 0.00 43 1016.7
20260905182911 36 259 0.0 0.0 0.00 0.00 0.00 45 1016.9
20260905182410 35 106 0.0 0.0 0.00 0.00 0.00 46 1017.1
20260905181906 37 53 0.0 0.0 0.00 0.00 0.00 43 1016.9